Location: *
(37.5724°S, 58.0067°E)
Time: 11:41:43
(UTC+00:00)

CZ-2C R/B - Pass Details

Date: 26 September 2020
Orbit: 640 x 704 km, 98.4° (Epoch: 30 October)

Event Time Altitude Azimuth Distance (km) Brightness Sun altitude
Exits shadow 15:05:39 - 38° (NE) 2,241 6.0 -12.1°
Reaches altitude 10° 15:05:51 10° 39° (NE) 2,160 5.9 -12.2°
Maximum altitude 15:10:18 41° 109° (ESE) 1,019 4.3 -13.0°
Drops below altitude 10° 15:14:50 10° 178° (S) 2,204 6.5 -13.9°
Sets 15:17:13 0° 184° (S) 3,132 7.4 -14.4°
